TimeEST,TemperatureF,Dew PointF,Humidity,Sea Level PressureIn,VisibilityMPH,Wind Direction,Wind SpeedMPH,Gust SpeedMPH,PrecipitationIn,Events,Conditions,WindDirDegrees,DateUTC
12:28 AM,35.6,32.0,87,30.26,8.0,WNW,4.6,-,N/A,,Overcast,290,2011-12-24 05:28:00
1:03 AM,33.8,30.2,87,30.27,10.0,WNW,5.8,-,0.00,,Overcast,290,2011-12-24 06:03:00
1:12 AM,33.8,30.2,87,30.27,10.0,WNW,4.6,-,0.00,,Overcast,300,2011-12-24 06:12:00
1:20 AM,33.8,30.2,87,30.28,10.0,WNW,4.6,-,0.00,,Overcast,300,2011-12-24 06:20:00
1:53 AM,34.0,28.9,82,30.33,10.0,NW,3.5,-,0.00,,Overcast,320,2011-12-24 06:53:00
2:53 AM,34.0,27.0,75,30.35,10.0,West,6.9,-,N/A,,Overcast,280,2011-12-24 07:53:00
3:33 AM,33.8,24.8,70,30.34,10.0,WNW,8.1,-,N/A,,Overcast,300,2011-12-24 08:33:00
3:53 AM,33.1,25.0,72,30.37,10.0,West,3.5,-,N/A,,Overcast,280,2011-12-24 08:53:00
4:53 AM,33.1,25.0,72,30.39,10.0,Calm,Calm,-,N/A,,Overcast,0,2011-12-24 09:53:00
5:53 AM,33.1,26.1,75,30.41,10.0,Calm,Calm,-,N/A,,Overcast,0,2011-12-24 10:53:00
6:53 AM,33.1,26.1,75,30.42,10.0,Calm,Calm,-,N/A,,Overcast,0,2011-12-24 11:53:00
7:53 AM,30.9,28.0,89,30.45,10.0,Calm,Calm,-,N/A,,Overcast,0,2011-12-24 12:53:00
8:53 AM,32.0,28.9,88,30.46,10.0,Calm,Calm,-,N/A,,Overcast,0,2011-12-24 13:53:00
9:53 AM,34.0,28.9,82,30.46,10.0,Calm,Calm,-,N/A,,Scattered Clouds,0,2011-12-24 14:53:00
10:53 AM,36.0,30.0,79,30.46,10.0,South,6.9,-,N/A,,Mostly Cloudy,190,2011-12-24 15:53:00
10:57 AM,35.6,30.2,81,30.43,10.0,SW,4.6,-,N/A,,Mostly Cloudy,220,2011-12-24 15:57:00
11:26 AM,37.4,30.2,75,30.41,10.0,SW,4.6,-,N/A,,Overcast,220,2011-12-24 16:26:00
11:53 AM,37.9,28.0,68,30.43,10.0,SW,6.9,-,N/A,,Mostly Cloudy,230,2011-12-24 16:53:00
12:53 PM,39.9,27.0,60,30.40,10.0,Variable,4.6,-,N/A,,Mostly Cloudy,0,2011-12-24 17:53:00
1:53 PM,41.0,28.0,60,30.36,10.0,South,4.6,-,N/A,,Mostly Cloudy,170,2011-12-24 18:53:00
2:53 PM,41.0,26.6,57,30.34,10.0,Variable,5.8,-,N/A,,Mostly Cloudy,0,2011-12-24 19:53:00
3:53 PM,39.9,26.1,58,30.38,10.0,Variable,6.9,21.9,N/A,,Overcast,0,2011-12-24 20:53:00
4:53 PM,37.9,25.0,60,30.39,10.0,SSW,8.1,-,N/A,,Scattered Clouds,210,2011-12-24 21:53:00
5:53 PM,36.0,24.1,62,30.40,10.0,Calm,Calm,-,N/A,,Clear,0,2011-12-24 22:53:00
6:53 PM,32.0,24.1,73,30.39,10.0,South,3.5,-,N/A,,Clear,170,2011-12-24 23:53:00
7:53 PM,32.0,25.0,75,30.39,10.0,SSW,3.5,-,N/A,,Clear,200,2011-12-25 00:53:00
8:53 PM,33.1,25.0,72,30.38,10.0,Calm,Calm,-,N/A,,Clear,0,2011-12-25 01:53:00
9:53 PM,32.0,25.0,75,30.36,10.0,Calm,Calm,-,N/A,,Clear,0,2011-12-25 02:53:00
10:53 PM,33.1,25.0,72,30.35,10.0,SSW,3.5,-,N/A,,Clear,200,2011-12-25 03:53:00
11:53 PM,30.0,25.0,82,30.35,10.0,SSW,3.5,-,N/A,,Clear,200,2011-12-25 04:53:00